Wind_Speed
28 26 29 28 28 31 32 34 26 44 38 39 42 48 54 63 62 50 40 37 34 34 35 38 42 47 52 59 62 63 54 58 59 61 63 56 49 46 47 43 44 62 68 70 68
32 29 24 26 27 27 28 29 29 36 36 39 46 51 57 61 66 54 46 42 37 34 34 37 42 48 54 58 62 62 60 59 64 66 62 56 54 51 48 50 46 54 68 71 66
29 26 25 18 25 27 31 24 39 42 46 44 43 55 58 64 73 63 53 44 39 35 36 38 42 46 54 59 64 65 65 66 66 64 63 58 56 54 52 54 47 48 64 70 70
27 20 13 19 18 28 41 44 38 40 46 49 50 53 58 71 75 77 74 49 41 39 36 39 41 46 52 58 64 64 69 71 70 67 65 61 58 57 55 54 47 51 52 71 71
26 24 22 17 18 32 40 39 40 44 48 53 51 54 60 73 82 83 84 57 43 40 38 41 42 46 49 58 65 67 67 73 74 71 67 66 64 63 59 58 56 54 55 63 75
30 33 29 33 31 32 37 38 44 48 51 55 56 53 61 74 82 89 77 62 47 43 46 40 40 47 50 54 63 66 71 70 74 76 72 70 70 68 65 65 60 57 56 54 69
33 32 31 40 35 36 38 46 53 53 52 55 54 51 63 74 83 87 82 68 55 50 39 38 34 38 48 52 57 63 69 73 71 74 73 75 73 68 71 66 60 59 58 57 55
33 35 35 40 42 41 46 49 51 53 53 53 58 57 61 72 79 89 91 78 63 59 43 33 35 37 42 52 58 59 65 72 76 72 74 74 73 73 75 69 65 64 61 58 56
33 35 41 43 45 42 46 51 50 59 55 59 61 64 68 70 77 91 92 97 72 67 50 32 31 35 38 46 54 63 63 69 76 77 73 75 73 75 74 69 68 68 68 64 58
34 36 41 42 45 44 47 54 55 57 58 61 63 69 73 72 82 91 99 104 81 67 45 34 31 31 36 43 48 57 67 68 71 77 77 71 74 75 74 70 70 72 73 70 64
30 26 30 39 46 49 43 51 51 57 60 64 68 72 75 78 83 92 98 105 84 77 48 36 30 26 32 39 43 49 60 67 70 72 76 78 73 76 75 72 72 75 78 77 75
28 30 32 35 36 37 43 48 46 52 60 66 69 72 76 82 82 91 98 100 95 76 55 36 27 22 25 34 40 44 51 61 66 70 75 78 74 75 79 77 75 78 80 79 80
36 34 39 36 37 38 40 51 50 53 61 68 72 75 75 80 77 91 102 102 106 75 54 37 27 21 20 26 34 41 46 53 61 64 69 77 80 78 80 85 83 81 84 86 83
37 40 40 41 45 39 41 48 51 56 60 68 72 75 78 77 83 86 105 104 105 77 59 43 30 26 22 23 31 38 43 46 51 56 64 73 79 85 85 88 89 87 85 85 87
40 39 43 43 40 44 47 48 52 56 59 67 72 77 77 83 84 94 101 102 101 79 61 48 38 33 26 23 27 34 39 43 46 46 57 69 79 91 90 87 88 88 90 90 90
52 51 53 56 56 45 50 50 51 57 61 66 72 78 78 81 81 95 101 101 101 79 68 53 47 38 30 23 21 25 30 40 45 49 50 63 75 84 89 90 90 91 92 94 94
44 52 52 51 56 48 50 51 54 58 64 67 74 78 76 83 83 95 95 102 101 82 70 53 47 42 35 26 22 20 21 30 39 43 49 55 62 72 83 88 92 95 96 97 96
40 52 51 53 53 53 52 55 55 60 62 70 74 77 78 76 85 87 96 95 89 79 71 55 50 43 38 31 22 15 13 16 24 37 45 51 54 61 70 80 89 93 97 100 99
49 48 48 52 57 56 52 55 57 59 63 69 72 74 77 79 81 81 95 98 79 75 70 58 52 46 40 33 20 11 10 12 16 22 32 41 48 51 63 72 82 92 95 97 103
53 52 52 52 56 58 54 56 58 61 66 69 71 74 78 73 81 81 91 99 77 74 71 58 51 47 39 31 18 10 5 4 6 13 19 25 31 39 49 56 62 71 82 92 94
60 59 57 56 58 59 57 58 58 61 66 66 70 71 80 72 77 78 86 97 74 72 71 63 52 50 38 32 21 15 10 7 5 3 3 5 11 15 22 29 34 46 60 69 76
64 62 63 62 60 60 62 60 58 60 67 64 73 70 80 75 71 77 92 87 73 69 68 62 50 49 38 32 18 11 9 5 5 6 6 4 4 6 12 14 18 21 26 38 54
71 68 66 64 61 62 62 64 62 60 62 71 70 72 69 72 70 71 89 85 71 67 67 64 50 47 40 32 21 9 8 7 10 10 6 8 9 8 10 11 13 13 25 28 35
77 72 71 66 67 68 67 65 61 63 67 72 70 69 69 66 63 70 77 79 70 65 66 64 47 47 40 32 23 7 4 11 10 8 1 5 10 10 7 20 19 12 15 30 38
83 77 77 75 73 72 72 65 61 63 64 62 67 64 70 67 58 73 70 72 67 64 65 63 52 42 44 33 27 13 9 9 16 9 3 3 11 16 19 17 20 13 7 8 26
87 83 83 78 79 73 67 62 64 66 69 63 63 65 58 60 58 67 68 66 64 65 65 60 57 43 44 34 26 21 15 10 12 15 9 9 6 14 12 18 24 22 23 18 32
80 82 77 80 80 72 70 63 69 65 62 59 60 52 54 54 55 63 64 64 63 64 63 60 58 45 42 37 27 23 19 16 13 20 13 13 12 13 12 15 19 25 28 20 22
Wind_Direction
304 278 294 303 314 303 305 305 315 322 329 338 339 343 349 349 343 332 322 313 302 287 278 265 257 249 242 237 234 231 227 233 232 234 238 239 235 238 241 244 241 228 230 228 228
301 277 302 317 324 310 318 313 313 335 337 337 341 346 353 355 351 339 324 316 308 294 276 269 260 253 246 238 234 233 227 228 232 234 237 240 232 233 235 236 237 234 229 231 229
297 282 306 335 344 331 328 349 339 332 337 337 343 354 358 2 3 353 336 322 313 299 288 273 264 255 249 242 235 231 230 228 232 233 235 237 229 228 233 238 234 236 230 231 227
291 288 302 330 337 325 339 332 327 327 336 335 341 350 357 360 359 355 354 337 322 310 289 274 265 257 250 246 238 232 231 231 232 234 234 234 231 226 230 236 234 238 237 229 227
283 277 287 305 313 324 332 332 334 330 334 340 343 344 355 355 351 355 352 347 332 316 302 282 268 257 250 246 242 234 231 232 233 232 235 233 232 229 228 231 232 232 236 229 229
281 278 276 289 292 323 335 324 331 330 332 336 340 343 352 351 351 354 353 352 341 325 310 294 272 255 247 245 241 238 232 231 231 232 231 234 233 230 230 230 229 232 236 236 230
278 272 275 288 293 304 320 317 325 330 332 340 340 342 346 350 351 356 358 351 347 337 319 296 279 264 250 241 240 236 235 233 231 230 231 232 234 231 234 230 229 233 233 234 236
276 264 273 288 294 304 305 311 320 329 336 342 344 344 340 345 349 354 354 357 348 342 331 297 278 270 259 243 239 236 234 234 232 231 228 230 233 233 233 233 226 229 236 235 235
283 273 278 288 295 305 302 305 313 328 333 341 340 345 345 343 348 351 355 358 351 341 333 302 277 272 259 250 242 236 235 232 232 231 230 229 229 234 233 232 226 228 231 236 234
295 277 281 285 295 296 302 302 308 319 332 337 341 347 345 346 345 347 351 355 352 346 335 310 287 270 259 248 247 240 235 235 231 232 230 229 229 233 234 230 226 226 230 234 234
297 297 286 290 293 296 311 314 306 311 328 335 340 345 347 345 345 346 351 357 354 349 338 324 297 278 257 249 243 242 236 233 233 230 229 228 228 231 231 233 228 226 228 231 234
284 283 298 287 291 295 302 310 317 320 330 334 341 343 345 346 344 344 348 353 353 349 344 339 320 291 264 252 246 242 237 234 232 231 229 228 227 230 231 229 231 228 229 229 231
278 285 289 306 304 295 293 314 325 322 327 333 338 339 337 343 342 343 346 351 352 347 347 342 333 312 278 258 249 242 240 235 233 230 228 227 226 228 230 231 229 230 230 230 228
272 287 293 291 299 303 307 307 321 326 325 332 334 337 335 340 338 342 346 349 350 348 350 347 333 322 296 269 254 247 241 239 231 229 226 225 225 227 229 230 232 232 232 233 232
273 280 293 298 301 300 312 319 323 322 327 333 336 337 337 337 340 341 345 348 351 351 353 349 342 338 326 300 272 253 242 241 238 231 227 224 224 229 228 230 233 235 236 235 234
267 275 283 288 297 305 306 316 320 323 326 334 335 336 338 337 335 337 345 350 352 351 352 349 347 341 339 322 293 266 253 241 236 235 230 227 225 230 233 232 233 235 237 238 238
271 273 277 287 289 303 310 316 318 325 327 334 335 334 333 339 337 340 345 348 348 348 350 348 348 340 344 335 313 291 268 250 241 238 237 235 229 228 235 237 236 237 238 239 240
279 275 280 282 281 298 302 312 318 323 325 329 334 333 333 333 333 341 343 347 347 348 353 351 351 345 344 342 329 308 286 263 247 241 239 239 240 235 234 236 240 240 240 239 240
276 281 280 282 285 294 300 304 314 321 322 327 330 330 332 331 334 339 343 349 346 347 351 349 352 346 346 347 345 325 291 266 252 241 240 239 241 240 241 241 239 240 241 240 238
278 281 282 285 290 293 301 304 311 315 321 324 328 326 329 329 333 338 344 347 345 347 348 352 350 347 347 349 340 326 324 288 248 245 243 245 243 244 247 248 246 246 246 247 246
276 272 277 288 290 290 298 303 308 313 317 321 323 321 325 327 331 335 342 345 346 347 349 353 349 347 347 349 341 348 359 5 1 338 292 298 273 257 265 269 261 250 250 251 249
276 272 277 281 287 292 295 299 306 308 312 317 320 318 322 327 328 331 336 346 347 348 349 353 346 347 345 343 336 345 358 331 322 334 321 311 251 277 294 305 300 291 262 254 252
273 275 273 280 284 285 290 297 302 304 309 314 314 317 320 326 329 335 337 344 347 350 350 351 345 347 341 340 334 338 326 289 313 314 342 334 338 359 317 336 330 269 280 270 258
273 272 274 278 284 283 287 297 299 298 302 307 312 315 319 320 326 330 338 343 345 351 351 351 346 346 342 335 329 311 290 253 264 336 3 356 347 340 331 349 343 311 255 257 261
272 273 275 280 280 282 289 294 291 294 303 304 305 314 318 319 320 330 338 342 343 352 351 351 348 345 342 333 326 294 267 280 256 255 229 249 317 313 329 354 357 350 13 293 253
267 270 275 280 280 281 284 283 289 292 297 299 304 312 313 314 318 329 338 341 342 352 349 353 350 346 337 331 323 319 271 254 266 248 223 256 283 290 320 338 353 4 352 8 27
268 267 270 274 277 279 276 282 286 292 295 296 303 305 312 307 314 326 337 340 341 348 350 352 351 346 340 331 328 321 290 254 265 242 247 236 244 266 288 306 334 338 344 7 39
Height
10771 10768 10768 10766 10762 10759 10756 10751 10745 10742 10733 10726 10718 10709 10702 10693 10681 10672 10666 10661 10657 10654 10651 10651 10651 10651 10652 10656 10663 10672 10683 10683 10684 10683 10684 10701 10714 10718 10721 10727 10733 10738 10741 10745 10754
10766 10763 10762 10759 10756 10753 10748 10743 10741 10738 10729 10720 10712 10703 10695 10684 10673 10667 10658 10651 10644 10641 10641 10639 10640 10639 10640 10642 10649 10658 10666 10667 10665 10669 10681 10691 10702 10705 10712 10712 10721 10727 10729 10735 10745
10760 10759 10757 10754 10750 10747 10744 10739 10736 10731 10723 10715 10706 10696 10688 10678 10669 10661 10650 10641 10635 10630 10627 10626 10625 10626 10627 10631 10633 10642 10651 10650 10652 10661 10669 10675 10688 10694 10698 10698 10711 10715 10719 10724 10733
10754 10752 10750 10747 10744 10742 10739 10733 10730 10724 10717 10708 10698 10689 10679 10670 10662 10652 10642 10631 10625 10620 10614 10611 10610 10610 10612 10616 10620 10628 10631 10635 10638 10647 10657 10664 10674 10681 10684 10691 10701 10704 10709 10714 10720
10748 10747 10745 10742 10737 10736 10734 10729 10724 10718 10711 10700 10691 10681 10672 10662 10653 10642 10632 10621 10613 10608 10602 10598 10595 10593 10594 10597 10603 10613 10616 10619 10624 10632 10642 10650 10657 10666 10672 10678 10686 10692 10695 10703 10707
10741 10740 10737 10734 10732 10730 10727 10723 10719 10712 10703 10693 10684 10674 10665 10654 10645 10635 10619 10610 10603 10596 10587 10578 10574 10575 10577 10581 10584 10593 10600 10603 10609 10619 10631 10635 10641 10652 10660 10660 10674 10682 10687 10695 10700
10734 10732 10729 10727 10727 10725 10720 10717 10712 10704 10694 10686 10676 10666 10658 10647 10637 10626 10610 10598 10589 10582 10571 10563 10558 10558 10560 10564 10568 10575 10582 10590 10592 10601 10614 10620 10628 10643 10639 10652 10666 10672 10676 10682 10689
10726 10725 10723 10722 10720 10720 10715 10710 10706 10698 10688 10677 10668 10657 10649 10639 10629 10619 10607 10588 10579 10568 10559 10551 10546 10543 10543 10548 10553 10558 10564 10572 10578 10586 10597 10607 10618 10623 10626 10638 10652 10661 10665 10672 10678
10720 10720 10719 10715 10713 10712 10708 10703 10699 10692 10681 10670 10660 10650 10640 10631 10621 10609 10595 10582 10569 10558 10546 10539 10534 10531 10531 10533 10536 10542 10547 10552 10562 10571 10579 10591 10602 10605 10613 10627 10639 10646 10650 10654 10662
10714 10713 10712 10710 10708 10705 10701 10697 10691 10684 10674 10665 10654 10642 10632 10622 10613 10598 10585 10569 10556 10547 10536 10526 10523 10518 10518 10519 10522 10525 10531 10537 10545 10555 10566 10579 10589 10594 10600 10613 10624 10630 10634 10639 10644
10706 10706 10706 10704 10703 10699 10695 10690 10684 10676 10666 10655 10645 10634 10626 10616 10603 10591 10576 10562 10547 10535 10523 10515 10509 10505 10504 10505 10507 10510 10515 10522 10528 10538 10550 10560 10570 10576 10586 10597 10604 10608 10615 10621 10625
10701 10700 10698 10696 10695 10692 10688 10682 10674 10667 10657 10649 10638 10627 10618 10607 10595 10585 10570 10557 10541 10528 10515 10505 10498 10494 10492 10493 10494 10497 10501 10505 10513 10522 10531 10545 10559 10560 10567 10576 10582 10591 10597 10601 10609
10694 10693 10691 10689 10686 10683 10680 10674 10665 10657 10650 10641 10630 10620 10610 10601 10590 10579 10564 10549 10537 10522 10509 10498 10492 10487 10483 10482 10483 10484 10485 10491 10496 10504 10516 10525 10536 10544 10546 10551 10560 10567 10573 10582 10590
10686 10685 10683 10680 10679 10675 10671 10666 10658 10651 10644 10634 10623 10613 10603 10594 10584 10572 10559 10545 10531 10515 10502 10493 10485 10480 10475 10472 10472 10471 10474 10477 10483 10489 10499 10508 10520 10519 10525 10530 10539 10550 10558 10566 10573
10678 10676 10675 10673 10670 10667 10663 10658 10650 10643 10637 10627 10616 10605 10597 10586 10575 10564 10552 10536 10523 10508 10494 10485 10477 10472 10466 10463 10461 10460 10463 10467 10471 10477 10483 10494 10502 10492 10504 10518 10527 10534 10541 10548 10556
10669 10668 10666 10664 10663 10659 10655 10650 10644 10637 10629 10620 10610 10600 10590 10581 10572 10556 10545 10529 10514 10506 10492 10479 10469 10462 10458 10454 10452 10450 10453 10456 10459 10465 10473 10476 10483 10486 10495 10504 10511 10516 10522 10529 10537
10659 10659 10657 10656 10653 10651 10646 10642 10637 10629 10622 10614 10604 10593 10585 10576 10565 10554 10540 10525 10510 10497 10490 10476 10467 10456 10450 10447 10444 10442 10444 10446 10452 10458 10461 10464 10472 10481 10481 10488 10495 10500 10505 10512 10521
10649 10649 10648 10647 10644 10642 10639 10633 10627 10622 10614 10608 10599 10588 10580 10571 10561 10550 10536 10522 10507 10495 10482 10471 10461 10452 10445 10441 10439 10437 10437 10438 10442 10446 10450 10453 10460 10465 10467 10469 10472 10477 10483 10491 10503
10638 10637 10637 10636 10635 10632 10630 10626 10621 10614 10609 10602 10594 10584 10576 10569 10556 10548 10537 10523 10504 10493 10482 10467 10459 10448 10441 10437 10434 10431 10431 10432 10434 10435 10438 10443 10446 10452 10449 10449 10452 10454 10458 10465 10475
10625 10627 10627 10626 10624 10623 10621 10617 10612 10607 10602 10596 10590 10579 10570 10564 10555 10543 10533 10520 10503 10489 10478 10468 10457 10448 10440 10435 10432 10429 10428 10429 10430 10430 10432 10433 10436 10437 10434 10434 10440 10444 10446 10448 10454
10612 10613 10614 10614 10613 10613 10611 10608 10605 10600 10596 10591 10584 10576 10566 10561 10553 10540 10528 10519 10503 10488 10473 10465 10454 10446 10439 10434 10431 10429 10427 10427 10427 10427 10427 10428 10428 10427 10426 10425 10428 10430 10432 10432 10434
10598 10601 10602 10600 10602 10602 10601 10599 10597 10593 10590 10584 10579 10572 10561 10556 10548 10537 10525 10516 10503 10487 10475 10464 10455 10445 10439 10433 10431 10429 10427 10427 10426 10426 10425 10425 10425 10423 10421 10420 10418 10415 10416 10416 10416
10582 10584 10587 10588 10589 10590 10590 10590 10589 10585 10582 10578 10574 10567 10555 10551 10543 10534 10521 10510 10499 10487 10474 10462 10453 10444 10436 10432 10429 10427 10427 10427 10425 10425 10424 10422 10421 10421 10420 10418 10415 10411 10405 10404 10401
10566 10570 10570 10575 10577 10577 10579 10579 10577 10577 10575 10571 10567 10562 10551 10545 10539 10529 10520 10507 10496 10486 10474 10461 10451 10442 10435 10430 10427 10425 10425 10425 10425 10424 10423 10422 10419 10418 10418 10416 10413 10409 10403 10397 10393
10549 10553 10552 10560 10564 10565 10568 10567 10568 10567 10567 10563 10560 10554 10546 10539 10536 10526 10516 10504 10493 10485 10474 10460 10449 10441 10434 10428 10424 10423 10422 10422 10422 10422 10421 10421 10419 10416 10414 10414 10414 10406 10398 10392 10386
10535 10536 10536 10545 10547 10552 10555 10557 10557 10555 10557 10554 10553 10548 10541 10532 10530 10522 10512 10501 10491 10482 10471 10461 10449 10438 10432 10426 10420 10418 10417 10418 10418 10419 10418 10419 10419 10417 10414 10412 10409 10406 10398 10390 10382
10522 10521 10523 10529 10532 10536 10542 10545 10545 10545 10546 10545 10542 10540 10535 10528 10525 10516 10506 10497 10488 10480 10472 10460 10448 10435 10429 10423 10418 10415 10413 10413 10414 10415 10416 10416 10417 10417 10414 10411 10408 10405 10400 10395 10390